| time (UTC) | temp F | wind direction | speed knots | gust knots | rain 1hr in | rain 24hr in | rain mn in | humidity % | barometer mb |
| 20260510213816 | 61 | 289 | 3.5 | 6.1 | 0.00 | 0.00 | 0.00 | 32 | 1018.0 |
| 20260510212817 | 62 | 336 | 3.5 | 6.1 | 0.00 | 0.00 | 0.00 | 31 | 1017.9 |
| 20260510211816 | 62 | 253 | 2.6 | 8.7 | 0.00 | 0.00 | 0.00 | 30 | 1017.9 |
| 20260510210816 | 65 | 8 | 3.5 | 7.8 | 0.00 | 0.00 | 0.00 | 30 | 1017.6 |
| 20260510205816 | 61 | 281 | 2.6 | 7.8 | 0.00 | 0.00 | 0.00 | 33 | 1017.7 |
| 20260510204816 | 61 | 272 | 1.7 | 3.5 | 0.00 | 0.00 | 0.00 | 31 | 1017.7 |
| 20260510203816 | 62 | 280 | 5.2 | 8.7 | 0.00 | 0.00 | 0.00 | 30 | 1017.8 |
| 20260510202816 | 62 | 258 | 5.2 | 7.0 | 0.00 | 0.00 | 0.00 | 30 | 1017.7 |
| 20260510201816 | 62 | 320 | 4.3 | 9.6 | 0.00 | 0.01 | 0.00 | 30 | 1017.8 |
| 20260510200816 | 63 | 337 | 4.3 | 8.7 | 0.00 | 0.03 | 0.00 | 31 | 1017.8 |
| 20260510195816 | 60 | 46 | 0.9 | 1.7 | 0.00 | 0.03 | 0.00 | 32 | 1017.9 |
| 20260510194817 | 61 | 312 | 1.7 | 6.1 | 0.00 | 0.03 | 0.00 | 32 | 1017.9 |
| 20260510193816 | 62 | 295 | 5.2 | 10.4 | 0.00 | 0.03 | 0.00 | 30 | 1018.0 |
| 20260510192836 | 64 | 332 | 4.3 | 11.3 | 0.00 | 0.03 | 0.00 | 31 | 1018.1 |
| 20260510191816 | 63 | 332 | 8.7 | 11.3 | 0.00 | 0.03 | 0.00 | 31 | 1018.0 |
| 20260510190816 | 63 | 326 | 7.8 | 12.2 | 0.00 | 0.03 | 0.00 | 30 | 1018.1 |
| 20260510185816 | 64 | 336 | 7.8 | 10.4 | 0.00 | 0.03 | 0.00 | 31 | 1018.1 |
| 20260510184816 | 61 | 300 | 4.3 | 7.8 | 0.00 | 0.03 | 0.00 | 30 | 1018.1 |
| 20260510183816 | 63 | 285 | 3.5 | 8.7 | 0.00 | 0.03 | 0.00 | 31 | 1018.0 |
| 20260510182816 | 62 | 13 | 7.0 | 11.3 | 0.00 | 0.03 | 0.00 | 32 | 1017.9 |
| 20260510181816 | 62 | 258 | 5.2 | 14.8 | 0.00 | 0.03 | 0.00 | 31 | 1017.8 |
| 20260510180837 | 62 | 32 | 6.1 | 8.7 | 0.00 | 0.03 | 0.00 | 33 | 1017.6 |
| 20260510175817 | 63 | 9 | 6.1 | 9.6 | 0.00 | 0.03 | 0.00 | 33 | 1017.6 |
| 20260510174816 | 61 | 340 | 5.2 | 13.9 | 0.00 | 0.03 | 0.00 | 32 | 1017.6 |
| 20260510173816 | 61 | 235 | 2.6 | 10.4 | 0.00 | 0.03 | 0.00 | 31 | 1017.7 |
| 20260510172816 | 60 | 285 | 2.6 | 8.7 | 0.00 | 0.03 | 0.00 | 29 | 1017.6 |
| 20260510171816 | 61 | 305 | 1.7 | 9.6 | 0.00 | 0.03 | 0.00 | 32 | 1017.6 |
| 20260510170816 | 61 | 288 | 3.5 | 8.7 | 0.00 | 0.03 | 0.00 | 33 | 1017.7 |
| 20260510165857 | 59 | 320 | 2.6 | 9.6 | 0.00 | 0.03 | 0.00 | 35 | 1017.9 |
| 20260510164816 | 59 | 321 | 4.3 | 7.8 | 0.00 | 0.03 | 0.00 | 33 | 1017.9 |
| 20260510163837 | 59 | 275 | 6.1 | 9.6 | 0.00 | 0.03 | 0.00 | 32 | 1017.9 |
| 20260510162816 | 60 | 355 | 4.3 | 11.3 | 0.00 | 0.03 | 0.00 | 32 | 1017.9 |
| 20260510161816 | 60 | 29 | 7.0 | 10.4 | 0.00 | 0.03 | 0.00 | 33 | 1017.9 |
| 20260510160837 | 60 | 296 | 3.5 | 7.0 | 0.00 | 0.03 | 0.00 | 33 | 1017.9 |
| 20260510155817 | 59 | 288 | 3.5 | 6.1 | 0.00 | 0.03 | 0.00 | 33 | 1017.8 |
| 20260510154817 | 60 | 345 | 5.2 | 9.6 | 0.00 | 0.03 | 0.00 | 35 | 1017.7 |
| 20260510153817 | 58 | 80 | 1.7 | 4.3 | 0.00 | 0.03 | 0.00 | 37 | 1017.6 |
| 20260510152817 | 58 | 316 | 2.6 | 5.2 | 0.00 | 0.03 | 0.00 | 35 | 1017.5 |
| 20260510151817 | 58 | 322 | 3.5 | 11.3 | 0.00 | 0.03 | 0.00 | 35 | 1017.6 |
| 20260510150816 | 57 | 260 | 4.3 | 6.1 | 0.00 | 0.03 | 0.00 | 38 | 1017.3 |
| 20260510145837 | 58 | 348 | 6.1 | 9.6 | 0.00 | 0.03 | 0.00 | 37 | 1017.3 |
| 20260510144817 | 56 | 263 | 3.5 | 5.2 | 0.00 | 0.03 | 0.00 | 38 | 1017.1 |
| 20260510143816 | 56 | 310 | 6.1 | 10.4 | 0.00 | 0.03 | 0.00 | 36 | 1017.1 |
| 20260510142817 | 56 | 261 | 5.2 | 10.4 | 0.00 | 0.03 | 0.00 | 38 | 1017.1 |
| 20260510141816 | 56 | 259 | 2.6 | 6.1 | 0.00 | 0.03 | 0.00 | 40 | 1017.0 |
| 20260510140817 | 56 | 277 | 5.2 | 6.1 | 0.00 | 0.03 | 0.00 | 38 | 1016.9 |
| 20260510135816 | 55 | 10 | 1.7 | 2.6 | 0.00 | 0.03 | 0.00 | 41 | 1016.9 |
| 20260510134817 | 54 | 291 | 1.7 | 2.6 | 0.00 | 0.03 | 0.00 | 44 | 1016.9 |
| 20260510133917 | 54 | 22 | 2.6 | 4.3 | 0.00 | 0.03 | 0.00 | 44 | 1017.0 |
| 20260510132816 | 52 | 228 | 2.6 | 4.3 | 0.00 | 0.03 | 0.00 | 46 | 1017.0 |
| 20260510131816 | 52 | 256 | 0.9 | 2.6 | 0.00 | 0.03 | 0.00 | 46 | 1017.0 |
| 20260510130837 | 52 | 42 | 1.7 | 3.5 | 0.00 | 0.03 | 0.00 | 47 | 1016.9 |
| 20260510125817 | 51 | 358 | 2.6 | 3.5 | 0.00 | 0.03 | 0.00 | 50 | 1016.8 |
| 20260510124816 | 50 | 75 | 1.7 | 2.6 | 0.00 | 0.03 | 0.00 | 52 | 1016.6 |
| 20260510123816 | 49 | 296 | 1.7 | 3.5 | 0.00 | 0.03 | 0.00 | 54 | 1016.4 |
| 20260510122816 | 49 | 358 | 0.9 | 2.6 | 0.00 | 0.03 | 0.00 | 55 | 1016.3 |
| 20260510121817 | 49 | 358 | 3.5 | 6.1 | 0.00 | 0.03 | 0.00 | 57 | 1016.2 |
| 20260510120817 | 48 | 5 | 1.7 | 3.5 | 0.00 | 0.03 | 0.00 | 59 | 1016.2 |
| 20260510115816 | 46 | 345 | 0.9 | 2.6 | 0.00 | 0.03 | 0.00 | 63 | 1016.2 |
| 20260510114817 | 44 | 342 | 0.9 | 3.5 | 0.00 | 0.03 | 0.00 | 68 | 1016.0 |
| 20260510113817 | 43 | 285 | 0.0 | 0.9 | 0.00 | 0.03 | 0.00 | 73 | 1015.9 |
| 20260510112816 | 41 | 283 | 0.9 | 0.9 | 0.00 | 0.03 | 0.00 | 73 | 1015.6 |
| 20260510111816 | 40 | 0.0 | 0.0 | 0.00 | 0.03 | 0.00 | 74 | 1015.4 | |
| 20260510110817 | 39 | 0.0 | 0.0 | 0.00 | 0.03 | 0.00 | 73 | 1015.2 | |
| 20260510105816 | 39 | 0.0 | 0.0 | 0.00 | 0.03 | 0.00 | 72 | 1015.1 | |
| 20260510104817 | 40 | 0.0 | 0.0 | 0.00 | 0.03 | 0.00 | 70 | 1014.8 | |
| 20260510103817 | 41 | 0.0 | 0.0 | 0.00 | 0.03 | 0.00 | 68 | 1014.6 | |
| 20260510102816 | 42 | 0.0 | 0.0 | 0.00 | 0.03 | 0.00 | 67 | 1014.5 | |
| 20260510101817 | 42 | 0.0 | 0.0 | 0.00 | 0.03 | 0.00 | 65 | 1014.4 | |
| 20260510100816 | 43 | 338 | 1.7 | 2.6 | 0.00 | 0.03 | 0.00 | 65 | 1014.3 |
| 20260510095816 | 43 | 317 | 0.0 | 2.6 | 0.00 | 0.03 | 0.00 | 64 | 1014.3 |
| 20260510094817 | 44 | 330 | 0.9 | 2.6 | 0.00 | 0.03 | 0.00 | 64 | 1014.3 |
| 20260510093816 | 44 | 14 | 1.7 | 2.6 | 0.00 | 0.03 | 0.00 | 64 | 1014.1 |
| 20260510092817 | 44 | 342 | 0.9 | 2.6 | 0.00 | 0.03 | 0.00 | 64 | 1014.0 |
| 20260510091817 | 45 | 346 | 0.9 | 3.5 | 0.00 | 0.03 | 0.00 | 64 | 1013.9 |
| 20260510090817 | 45 | 347 | 0.9 | 2.6 | 0.00 | 0.03 | 0.00 | 65 | 1013.8 |
| 20260510085816 | 44 | 327 | 2.6 | 3.5 | 0.00 | 0.03 | 0.00 | 66 | 1013.6 |
| 20260510084817 | 44 | 287 | 0.9 | 3.5 | 0.00 | 0.03 | 0.00 | 68 | 1013.3 |
| 20260510083837 | 44 | 333 | 1.7 | 4.3 | 0.00 | 0.03 | 0.00 | 71 | 1013.0 |
| 20260510082817 | 44 | 316 | 0.9 | 2.6 | 0.00 | 0.03 | 0.00 | 71 | 1012.8 |
| 20260510081817 | 44 | 0.0 | 0.0 | 0.00 | 0.03 | 0.00 | 71 | 1012.4 | |
| 20260510080817 | 44 | 337 | 1.7 | 4.3 | 0.00 | 0.03 | 0.00 | 72 | 1012.3 |
| 20260510075817 | 44 | 5 | 0.0 | 0.9 | 0.00 | 0.03 | 0.00 | 73 | 1012.0 |
| 20260510074816 | 45 | 0.0 | 0.0 | 0.00 | 0.03 | 0.00 | 72 | 1011.6 | |
| 20260510073816 | 46 | 0.0 | 0.0 | 0.00 | 0.03 | 0.00 | 71 | 1011.4 | |
| 20260510072817 | 46 | 0.0 | 0.0 | 0.00 | 0.03 | 0.00 | 70 | 1011.1 | |
| 20260510071816 | 47 | 0.0 | 0.0 | 0.00 | 0.03 | 0.00 | 69 | 1011.0 | |
| 20260510070816 | 47 | 320 | 0.0 | 0.9 | 0.00 | 0.03 | 0.00 | 69 | 1010.9 |
| 20260510065835 | 47 | 13 | 0.0 | 0.9 | 0.00 | 0.03 | 0.00 | 67 | 1010.7 |
| 20260510064817 | 47 | 327 | 0.9 | 1.7 | 0.00 | 0.03 | 0.00 | 69 | 1010.6 |
| 20260510063816 | 47 | 324 | 0.9 | 1.7 | 0.00 | 0.03 | 0.00 | 69 | 1010.5 |
| 20260510062817 | 47 | 324 | 0.9 | 1.7 | 0.00 | 0.03 | 0.00 | 69 | 1010.4 |
| 20260510061857 | 47 | 311 | 0.0 | 1.7 | 0.00 | 0.03 | 0.00 | 68 | 1010.4 |
| 20260510060837 | 48 | 0.0 | 0.0 | 0.00 | 0.03 | 0.00 | 67 | 1010.2 | |
| 20260510055817 | 48 | 310 | 0.9 | 0.9 | 0.00 | 0.03 | 0.00 | 66 | 1010.1 |
| 20260510054817 | 49 | 310 | 0.9 | 1.7 | 0.00 | 0.03 | 0.00 | 66 | 1010.0 |
| 20260510053815 | 50 | 0.0 | 0.0 | 0.00 | 0.03 | 0.00 | 65 | 1010.0 | |
| 20260510052817 | 51 | 0.0 | 0.0 | 0.00 | 0.03 | 0.00 | 64 | 1010.0 | |
| 20260510051817 | 51 | 0.0 | 0.0 | 0.00 | 0.03 | 0.00 | 61 | 1009.9 | |
| 20260510050817 | 52 | 0.0 | 0.9 | 0.00 | 0.03 | 0.00 | 59 | 1009.8 | |
| 20260510045817 | 53 | 329 | 0.0 | 1.7 | 0.00 | 0.03 | 0.00 | 57 | 1009.7 |
| 20260510044837 | 54 | 322 | 0.9 | 2.6 | 0.00 | 0.03 | 0.00 | 55 | 1009.5 |
| 20260510043817 | 55 | 12 | 0.0 | 0.9 | 0.00 | 0.03 | 0.00 | 53 | 1009.2 |
| 20260510042816 | 56 | 1 | 0.9 | 2.6 | 0.00 | 0.03 | 0.00 | 52 | 1009.1 |
| 20260510041835 | 57 | 15 | 2.6 | 4.3 | 0.00 | 0.03 | 0.00 | 51 | 1008.8 |
| 20260510040817 | 58 | 351 | 2.6 | 4.3 | 0.00 | 0.03 | 0.00 | 50 | 1008.8 |
| 20260510035817 | 58 | 357 | 2.6 | 5.2 | 0.00 | 0.03 | 0.03 | 49 | 1008.7 |
| 20260510034817 | 59 | 340 | 1.7 | 5.2 | 0.00 | 0.03 | 0.03 | 48 | 1008.6 |
| 20260510033816 | 60 | 16 | 3.5 | 6.1 | 0.00 | 0.03 | 0.03 | 48 | 1008.4 |
| 20260510032837 | 60 | 349 | 3.5 | 7.8 | 0.00 | 0.03 | 0.03 | 47 | 1008.2 |
| 20260510031817 | 60 | 356 | 2.6 | 3.5 | 0.00 | 0.03 | 0.03 | 47 | 1008.0 |
| 20260510030857 | 60 | 14 | 7.0 | 9.6 | 0.00 | 0.03 | 0.03 | 48 | 1007.9 |
| 20260510025816 | 61 | 2 | 4.3 | 8.7 | 0.00 | 0.03 | 0.03 | 49 | 1007.7 |
| 20260510024817 | 60 | 15 | 5.2 | 11.3 | 0.00 | 0.03 | 0.03 | 52 | 1007.4 |
| 20260510023857 | 60 | 4 | 0.9 | 4.3 | 0.00 | 0.03 | 0.03 | 56 | 1007.2 |
| 20260510022817 | 60 | 359 | 0.9 | 2.6 | 0.00 | 0.03 | 0.03 | 57 | 1006.8 |
| 20260510021837 | 59 | 352 | 0.9 | 2.6 | 0.00 | 0.03 | 0.03 | 58 | 1006.4 |
| 20260510020817 | 57 | 317 | 6.1 | 10.4 | 0.00 | 0.03 | 0.03 | 62 | 1006.2 |
| 20260510015817 | 57 | 0.0 | 0.0 | 0.00 | 0.03 | 0.03 | 64 | 1005.7 | |
| 20260510014817 | 57 | 309 | 0.9 | 1.7 | 0.00 | 0.03 | 0.03 | 62 | 1005.3 |
| 20260510013816 | 57 | 0.0 | 0.0 | 0.00 | 0.03 | 0.03 | 60 | 1005.0 | |
| 20260510012817 | 58 | 0.0 | 0.9 | 0.00 | 0.03 | 0.03 | 59 | 1004.8 | |
| 20260510011837 | 59 | 221 | 0.0 | 0.9 | 0.00 | 0.03 | 0.03 | 56 | 1004.7 |
| 20260510010817 | 60 | 0.0 | 0.0 | 0.00 | 0.03 | 0.03 | 58 | 1004.5 | |
| 20260510005817 | 62 | 221 | 0.0 | 0.9 | 0.00 | 0.03 | 0.03 | 52 | 1004.4 |
| 20260510004815 | 63 | 221 | 0.9 | 0.9 | 0.00 | 0.03 | 0.03 | 52 | 1004.3 |
| 20260510003817 | 65 | 274 | 1.7 | 3.5 | 0.00 | 0.03 | 0.03 | 46 | 1004.3 |
| 20260510002817 | 65 | 242 | 0.0 | 1.7 | 0.00 | 0.03 | 0.03 | 47 | 1004.1 |
| 20260510001815 | 66 | 253 | 0.9 | 1.7 | 0.00 | 0.03 | 0.03 | 43 | 1004.0 |
| 20260510000817 | 67 | 258 | 0.9 | 1.7 | 0.00 | 0.03 | 0.03 | 41 | 1003.9 |
| 20260509235817 | 68 | 244 | 2.6 | 3.5 | 0.00 | 0.03 | 0.03 | 40 | 1003.9 |
| 20260509234817 | 68 | 278 | 5.2 | 10.4 | 0.00 | 0.03 | 0.03 | 39 | 1003.7 |
| 20260509233837 | 69 | 286 | 6.1 | 12.2 | 0.00 | 0.03 | 0.03 | 37 | 1003.7 |
| 20260509232835 | 70 | 335 | 3.5 | 5.2 | 0.00 | 0.03 | 0.03 | 36 | 1003.6 |
| 20260509231817 | 70 | 233 | 6.1 | 15.6 | 0.00 | 0.03 | 0.03 | 35 | 1003.5 |
| 20260509230817 | 70 | 196 | 4.3 | 11.3 | 0.00 | 0.03 | 0.03 | 36 | 1003.5 |
| 20260509225816 | 70 | 299 | 4.3 | 9.6 | 0.00 | 0.03 | 0.03 | 34 | 1003.5 |
| 20260509224817 | 71 | 245 | 4.3 | 10.4 | 0.00 | 0.03 | 0.03 | 34 | 1003.3 |
| 20260509223817 | 71 | 249 | 4.3 | 13.0 | 0.00 | 0.03 | 0.03 | 34 | 1003.2 |
| 20260509222817 | 71 | 256 | 4.3 | 16.5 | 0.00 | 0.03 | 0.03 | 35 | 1003.1 |
| 20260509221817 | 72 | 262 | 10.4 | 14.8 | 0.00 | 0.03 | 0.03 | 36 | 1003.0 |
| 20260509220817 | 71 | 262 | 5.2 | 14.8 | 0.00 | 0.03 | 0.03 | 41 | 1002.7 |
| 20260509215817 | 69 | 219 | 2.6 | 3.5 | 0.00 | 0.03 | 0.03 | 53 | 1002.7 |
| 20260509214817 | 70 | 226 | 7.0 | 13.0 | 0.00 | 0.03 | 0.03 | 54 | 1002.6 |